Regional Weather Roundup
Issued by NWS Goodland, KS

Home | Current Version | Previous Version | Graphics & Text | Print | Product List | Glossary Off
Versions: 1 2 3 4 5 6 7 8 9 10 11 12 13 14 15 16 17 18 19 20 21 22 23 24 25 26 27 28 29 30 31 32 33 34 35 36 37 38 39 40 41 42 43 44 45 46 47 48 49 50

000
ASUS43 KGLD 301408
RWRGLD

GOODLAND FORECAST AREA HOURLY WEATHER ROUNDUP
NATIONAL WEATHER SERVICE GOODLAND KS
800 AM MDT THU OCT 30 2014

...OFFICIAL OBSERVATIONS...

CITY           SKY/WX    TMP DP  RH WIND       PRES   REMARKS
GOODLAND KS    CLEAR     42  26  53 W12       30.29R
HILL CITY KS   CLEAR     48  28  46 NW10      30.21R
IMPERIAL NEB   CLEAR     42  27  55 NW13      30.27R
MCCOOK NEB     CLEAR     40  27  59 W15       30.23R
AKRON CO       CLEAR     38  25  59 W9        30.33R
BURLINGTON CO  CLEAR     40  24  53 NW12      30.30R
LIMON CO       CLEAR     36  23  59 NW3       30.36R
$$

...UNOFFICIAL OBSERVATIONS...

CITY           SKY/WX    TMP DP  RH WIND       PRES   REMARKS
COLBY KS       CLEAR     43  30  61 W10       30.27R
NORTON KS      CLEAR     45  27  49 W10       30.19R
SHARON SPRINGS   N/A     39  29  69 NW7         N/A
TRIBUNE KS     CLEAR     45  32  61 NW13      30.29R
TRENTON NEB      N/A     43  32  65 NW10        N/A
$$



USA.gov is the U.S. government's official web portal to all federal, state and local government web resources and services.